Погода в Исилькуле

Погода в Исилькуле : погода сейчас, прогноз погоды и архив. Всё, что Вы хотите узнать о погоде в Исилькуле!

Хотите узнать прогноз погоды в Исилькуле? Тогда Вам сюда: Погода в Исилькуле

Поиск расширенной информации на нашем сайте:

Полезная информация: Деньги в долг срочно дам деньги в долг.

Другие новости

Новости СМИ2

Главная страница сайта

Новости сайта

02.10.2013

Напоминаем, что на нашем новом сайте вы можете получить высокодетализированные прогнозы погоды по пунктам России, СНГ и мира (включающие важные для авиации метеовеличины, такие как направление и скорость ветра, видимость, явления погоды, количество и форма облачности, нижняя и верхняя граница облачности), а также ознакомиться с разнообразными материалами по авиационной метеорологии и подборкой полезных ссылок на эту тему.

Сайт Метеоцентр.Азия посвящён разработке технологий оптимизации авиаметеорологического обслуживания, включая проектирование и перспективное создание нескольких автоматизированных авиаметеорологических систем:
- система выпуска высокодетальных прогностических карт явлений погоды для нижнего воздушного пространства по России и ближнему зарубежью;
- система верификации прогнозов TAF (выпускаемых синоптиками официальных АМСГ РФ и ближнего зарубежья) и AUTOTAF (выпускаемых сайтом Метеоцентр.Азия) - выявление ошибок, онлайн-сопоставление с фактической погодой METAR, автоматическое внесение коррективов в прогнозы при резком отклонении фактической погоды от прогноза, подсчёт оправдываемости прогнозов по элементам и в целом;
- система обработки, анализа и отображения авиаметеорологической информации для применения провайдерами метеорологической информации.

Рекомендуем: Образец договор купли продажи сруба бани.

Погода в Исилькуле - сегодня

Время (UTC), дата Ветер
(°,м/с) 
Видим.   Явления Облачность Т
(°С)
Тd
(°С)
f(%) Тe
(°С)
Pmin
(гПа)
dP
(гПа)
Po
(мм)
O2
(г/м3)
Тmin Tmax R s Состояние
почвы
06 21.02.17 250 (З) 7-13{14}  20000 м  позёмок{снег}  10/0 средняя 
[Ac As]
-0.3 -2.3 86 -4  1005.3  0.7  742  300           
09 21.02.17 250 (З) 6-11{14}  20000 м    10/0 средняя 
[Ac As]
+0.1 -2.2 84 -3  1006.4  1.1  743  300           
12 21.02.17 250 (З) 7-12{13}  20000 м  позёмок  10/0 средняя 
[Ac As]
-0.2 -2.4 85 -4  1007.7  1.3  744  300           
15 21.02.17 250 (З) 6-12{14}  10 км  позёмок  10/10 600 м 
[Sc]
-0.4 -2.7 84 -4  1009  1.2  745  301    +0.1       
18 21.02.17 250 (З) 6-12{14}  10 км  позёмок  10/10 600 м 
[Sc]
-0.2 -2.2 86 -4  1009.7  0.4  745  301           
21 21.02.17 250 (З) 5-10{12}  10 км  позёмок  10/10 600 м 
[Sc]
-0.7 -2.9 85 -4  1010.5  0.8  746  302           
00 22.02.17 260 (З) 6-11{12}  10 км  позёмок  10/10 600 м 
[Sc]
-1.1 -3 87 -5  1012.2  1.6  747  303           
03 22.02.17 250 (З) 6-12{11}  20000 м  позёмок  10/10 600 м 
[Sc]
-1.2 -3 88 -5  1013.7  1.7  748  303  -1.2      50  неравномерный
мокрый или
старый снег
100% 
06 22.02.17 240 (ЮЗ) 7-11{12}  20000 м  позёмок  10/0 средняя 
[Ac As]
-3.1 -4.8 88 -8  1015.8  750  306           
09 22.02.17 240 (ЮЗ) 5{12}  20000 м    6/0 верхняя 
[Ci fib]
-2.3 -5.7 77 -6  1016.8  1.1  751  306           
12 22.02.17 230 (ЮЗ) 5-10{10}  20000 м    10/0 средняя, верхняя 
[Ac As|Ci fib]
-1.9 -5.2 78 -5  1017.5  0.7  751  305           
15 22.02.17 230 (ЮЗ) 6-11{11}  10 км    10/0 средняя 
[As trans]
-1.8 -5.1 78 -6  1018.9  1.3  752  306    -1.2       
18 22.02.17 240 (ЮЗ) 5{11}  10 км    9/0 средняя 
[As trans]
-2.1 -5 80 -5  1020.3  1.3  753  306           
21 22.02.17 240 (ЮЗ) 10 км    ясно 
-2.5 -6.3 75 -6  1021.1  0.8  754  307           
00 23.02.17 230 (ЮЗ) 10 км    ясно 
-4.8 -7.6 81 -8  1022.1  0.8  755  310           
03 23.02.17 220 (ЮЗ) 20000 м    8/0 верхняя 
[Ci fib]
-7.2 -9.8 82 -10  1023.3  755  314  -7.2      49  неравномерный
мокрый или
старый снег
100% 
06 23.02.17 240 (ЮЗ) 20000 м    6/0 верхняя 
[Ci fib]
-3.4 -9.7 62 -6  1023.3  0.3  755  309           
09 23.02.17 200 (Ю) 20000 м    8/0 средняя, верхняя 
[Ac trans|Ci fib]
-2.1 -8.4 62 -4  1023.3  755  308           
12 23.02.17 190 (Ю) 20000 м    8/0 верхняя 
[Ci]
-4.8 -9.2 71 -7  1023.4  0.1  755  311           
15 23.02.17 160 (Ю) 10 км    ясно 
-8.3 -10.7 83 -10  1023.2  -0.4  755  315    -2       
18 23.02.17 170 (Ю) 10 км    ясно 
-10.5 -11.8 90 -12  1022.1  -1.3  754  317           
21 23.02.17 170 (Ю) 10 км    ясно 
-12 -13.3 90 -14  1021.1  -1.1  753  319           
00 24.02.17 160 (Ю) 10 км    ясно 
-14 -15.5 88 -16  1020.8  -0.4  753  321           
03 24.02.17 160 (Ю) 20000 м    ясно 
-16 -17.7 87 -16  1020.7  -0.3  753  324  -16.4      49  неравномерный
мокрый или
старый снег
100% 
06 24.02.17 180 (Ю) 20000 м    3/0 верхняя 
[Ci fib]
-10.1 -14.2 72 -13  1019.4  -0.9  752  316           
Время (UTC), дата Ветер
(°,м/с) 
Видим.   Явления Облачность Т
(°С)
Тd
(°С)
f(%) Тe
(°С)
Pmin
(гПа)
dP
(гПа)
Po
(мм)
O2
(г/м3)
Тmin Tmax R s Состояние
почвы

Для получения пояснительной информации подведите курсор к названию столбца.

ПОГОДА в Исилькуле - архив

Всё, что Вы хотите узнать о погоде в Исилькуле - удобно и подробно!

Выберите нужную дату (начиная с 1 января 2015* года) и нажмите кнопку "Найти".
Будут отображены архивные сводки погоды по пункту Исилькуль, начиная с указанной даты.


Отображать данные в формате CSV (для использования в таблицах Excel)


Внимание! Наш архив погоды предназначен исключительно для личного некоммерческого использования в познавательных целях. Если Вам необходимы официальные справки о состоянии погоды (для производственных, юридических, коммерческих и т.п. целей), обращайтесь в органы Росгидромета.

*Примечание: данная дата относится к архиву по метеостанциям СССР (Россия, СНГ, Балтия).
Архив по метеостанциям Зарубежной Европы и Азии (кроме Китая) хранится 10 дней, по другим регионам земного шара (Китай, Африка, Америка, Австралия, Океания) - 1 день.

Исилькуль - район местоположения метеостанции


Название, широта, долгота, высота метеостанции:
Исилькуль 54.9°ш. 71.2°д. 125 м над ур. моря [Российская Федерация]

Дополнительная информация

В oтличие oт бoльшинства пoгoдных сайтoв мы публикуем пoдрoбную метеoинфoрмацию в детальнoм прoфессиoнальнoм фoрмате.

Характеристики температуры и влажнoсти вoздуха измеряются на высoте 2 м в тени вдали oт зданий и деревьев.
Скoрoсть ветра измеряется на высoте 10 м (на урoвне рoста челoвека скoрoсть ветра ниже в 1.5-2 раза). Если метеoстанция нахoдится в гoрoде или в лесу, тo скoрoсть ветра занижена на 2-4 м/с пo сравнению с oткрытым местoм. Скoрoсть ветра над акватoриями крупных рек и oзёр, а также на вершинах хoлмoв на 2-5 м/с выше, чем в oбычных услoвиях.
Атмoсфернoе давление в разных тoчках местнoсти мoжет значительнo oтличаться oт давления на метеoстанции, в зависимoсти oт услoвий рельефа (при пoдъёме на 10 м давление пoнижается примернo на 1 мм рт.ст.).